,,Stat6,,Stat2,,Stat8,,Stat9,,Stat10,,Wind1,,Wind1,
time,status,PA1M_AVG,status,PR1M_SUM,status,RH1M_AVG,status,SR1M_AVG,status,TA1M_AVG,status,W1dAve1m,status,W1sAve1m,
2009-03-31, 00:00:00,VALID,916.813,VALID,0,VALID,100,VALID,-0.0169808,VALID,20.0797,VALID,177,VALID,0,
2009-03-31, 00:01:00,VALID,916.806,VALID,0,VALID,100,VALID,-0.0339617,VALID,20.0792,VALID,171,VALID,0,
2009-03-31, 00:02:00,VALID,916.806,VALID,0,VALID,100,VALID,-0.0169808,VALID,20.0922,VALID,157,VALID,0,
2009-03-31, 00:03:00,VALID,916.8,VALID,0,VALID,100,VALID,0,VALID,20.1179,VALID,160,VALID,0,
2009-03-31, 00:04:00,VALID,916.806,VALID,0,VALID,100,VALID,-0.0169808,VALID,20.1344,VALID,156,VALID,0,
2009-03-31, 00:05:00,VALID,916.806,VALID,0,VALID,100,VALID,0,VALID,20.1476,VALID,153,VALID,0,
2009-03-31, 00:06:00,VALID,916.783,VALID,0,VALID,100,VALID,-0.0169808,VALID,20.1371,VALID,137,VALID,0.100142,
2009-03-31, 00:07:00,VALID,916.774,VALID,0,VALID,100,VALID,0,VALID,20.1414,VALID,138,VALID,0.060404,
2009-03-31, 00:08:00,VALID,916.769,VALID,0,VALID,100,VALID,0,VALID,20.1149,VALID,141,VALID,0.242932,
2009-03-31, 00:09:00,VALID,916.738,VALID,0,VALID,100,VALID,-0.0509425,VALID,20.0954,VALID,153,VALID,0.420422,
2009-03-31, 00:10:00,VALID,916.716,VALID,0,VALID,100,VALID,-0.0509425,VALID,20.0467,VALID,153,VALID,0.443004,
2009-03-31, 00:11:00,VALID,916.7,VALID,0,VALID,100,VALID,-0.0339617,VALID,19.9916,VALID,144,VALID,0.21766,
2009-03-31, 00:12:00,VALID,916.682,VALID,0,VALID,100,VALID,-0.0509425,VALID,19.9364,VALID,144,VALID,0.177344,
2009-03-31, 00:13:00,VALID,916.678,VALID,0,VALID,100,VALID,0,VALID,19.9005,VALID,146,VALID,0.328472,
2009-03-31, 00:14:00,VALID,916.674,VALID,0,VALID,100,VALID,-0.0679233,VALID,19.865,VALID,136,VALID,0.0582541,
2009-03-31, 00:15:00,VALID,916.658,VALID,0,VALID,100,VALID,0.0169808,VALID,19.8388,VALID,138,VALID,0.286458,
2009-03-31, 00:16:00,VALID,916.642,VALID,0,VALID,100,VALID,0,VALID,19.8194,VALID,142,VALID,0.163699,
2009-03-31, 00:17:00,VALID,916.623,VALID,0,VALID,100,VALID,-0.0169808,VALID,19.8031,VALID,137,VALID,0.093006,
2009-03-31, 00:18:00,VALID,916.616,VALID,0,VALID,100,VALID,-0.0339617,VALID,19.7839,VALID,131,VALID,0.0150799,
2009-03-31, 00:19:00,VALID,916.593,VALID,0,VALID,100,VALID,-0.0169808,VALID,19.7674,VALID,136,VALID,0.0192454,
2009-03-31, 00:20:00,VALID,916.585,VALID,0,VALID,100,VALID,0,VALID,19.7712,VALID,136,VALID,0.140799,
2009-03-31, 00:21:00,VALID,916.567,VALID,0,VALID,100,VALID,-0.0339617,VALID,19.7447,VALID,127,VALID,0,
2009-03-31, 00:22:00,VALID,916.56,VALID,0,VALID,100,VALID,0,VALID,19.7352,VALID,123,VALID,0.0177557,
2009-03-31, 00:23:00,VALID,916.573,VALID,0,VALID,100,VALID,-0.0509425,VALID,19.7295,VALID,106,VALID,0.00260417,
2009-03-31, 00:24:00,VALID,916.58,VALID,0,VALID,100,VALID,-0.101885,VALID,19.7203,VALID,98,VALID,0,
2009-03-31, 00:25:00,VALID,916.577,VALID,0,VALID,100,VALID,-0.118866,VALID,19.7043,VALID,110,VALID,0,
2009-03-31, 00:26:00,VALID,916.605,VALID,0,VALID,100,VALID,-0.101885,VALID,19.6946,VALID,101,VALID,0,
2009-03-31, 00:27:00,VALID,916.595,VALID,0,VALID,100,VALID,-0.101885,VALID,19.6913,VALID,61,VALID,0,
2009-03-31, 00:28:00,VALID,916.624,VALID,0,VALID,100,VALID,-0.118866,VALID,19.6716,VALID,21,VALID,0,
2009-03-31, 00:29:00,VALID,916.618,VALID,0,VALID,100,VALID,-0.101885,VALID,19.6716,VALID,27,VALID,0,
2009-03-31, 00:30:00,VALID,916.616,VALID,0,VALID,100,VALID,-0.118866,VALID,19.6721,VALID,45,VALID,0,
2009-03-31, 00:31:00,VALID,916.617,VALID,0,VALID,100,VALID,-0.118866,VALID,19.6684,VALID,50,VALID,0,
2009-03-31, 00:32:00,VALID,916.596,VALID,0,VALID,100,VALID,-0.118866,VALID,19.6748,VALID,47,VALID,0,
2009-03-31, 00:33:00,VALID,916.57,VALID,0,VALID,100,VALID,-0.118866,VALID,19.6978,VALID,36,VALID,0,
2009-03-31, 00:34:00,VALID,916.531,VALID,0,VALID,100,VALID,-0.101885,VALID,19.6976,VALID,36,VALID,0,
2009-03-31, 00:35:00,VALID,916.519,VALID,0,VALID,100,VALID,-0.101885,VALID,19.7008,VALID,34,VALID,0,
2009-03-31, 00:36:00,VALID,916.501,VALID,0,VALID,100,VALID,-0.101885,VALID,19.7105,VALID,29,VALID,0,
2009-03-31, 00:37:00,VALID,916.481,VALID,0,VALID,100,VALID,-0.0849042,VALID,19.714,VALID,28,VALID,0,
2009-03-31, 00:38:00,VALID,916.475,VALID,0,VALID,100,VALID,-0.0509425,VALID,19.7065,VALID,28,VALID,0,
2009-03-31, 00:39:00,VALID,916.482,VALID,0,VALID,100,VALID,-0.0169808,VALID,19.6931,VALID,28,VALID,0,
2009-03-31, 00:40:00,VALID,916.494,VALID,0,VALID,100,VALID,0,VALID,19.709,VALID,28,VALID,0,
2009-03-31, 00:41:00,VALID,916.482,VALID,0,VALID,100,VALID,-0.0169808,VALID,19.7223,VALID,28,VALID,0,
2009-03-31, 00:42:00,VALID,916.505,VALID,0,VALID,100,VALID,-0.0169808,VALID,19.719,VALID,28,VALID,0,
2009-03-31, 00:43:00,VALID,916.503,VALID,0,VALID,100,VALID,0,VALID,19.722,VALID,28,VALID,0,
2009-03-31, 00:44:00,VALID,916.501,VALID,0,VALID,100,VALID,0,VALID,19.7058,VALID,28,VALID,0,
2009-03-31, 00:45:00,VALID,916.502,VALID,0,VALID,100,VALID,0,VALID,19.6928,VALID,28,VALID,0,
2009-03-31, 00:46:00,VALID,916.502,VALID,0,VALID,100,VALID,-0.0169808,VALID,19.6733,VALID,28,VALID,0,
2009-03-31, 00:47:00,VALID,916.486,VALID,0,VALID,100,VALID,0.0169808,VALID,19.6798,VALID,28,VALID,0,
2009-03-31, 00:48:00,VALID,916.467,VALID,0,VALID,100,VALID,-0.0169808,VALID,19.6898,VALID,28,VALID,0,
2009-03-31, 00:49:00,VALID,916.467,VALID,0,VALID,100,VALID,-0.0339617,VALID,19.6896,VALID,28,VALID,0,
2009-03-31, 00:50:00,VALID,916.454,VALID,0,VALID,100,VALID,-0.0169808,VALID,19.6798,VALID,28,VALID,0,
2009-03-31, 00:51:00,VALID,916.452,VALID,0,VALID,100,VALID,0,VALID,19.6669,VALID,28,VALID,0,
2009-03-31, 00:52:00,VALID,916.457,VALID,0,VALID,100,VALID,0,VALID,19.6539,VALID,28,VALID,0,
2009-03-31, 00:53:00,VALID,916.453,VALID,0,VALID,100,VALID,-0.0339617,VALID,19.6506,VALID,28,VALID,0,
2009-03-31, 00:54:00,VALID,916.452,VALID,0,VALID,100,VALID,0,VALID,19.6184,VALID,28,VALID,0,
2009-03-31, 00:55:00,VALID,916.448,VALID,0,VALID,100,VALID,-0.0169808,VALID,19.5663,VALID,34,VALID,0,
2009-03-31, 00:56:00,VALID,916.436,VALID,0,VALID,100,VALID,-0.0339617,VALID,19.5633,VALID,45,VALID,0,
2009-03-31, 00:57:00,VALID,916.436,VALID,0,VALID,100,VALID,-0.0169808,VALID,19.5795,VALID,46,VALID,0,
2009-03-31, 00:58:00,VALID,916.443,VALID,0,VALID,100,VALID,0,VALID,19.5728,VALID,46,VALID,0,
2009-03-31, 00:59:00,VALID,916.445,VALID,0,VALID,100,VALID,-0.0169808,VALID,19.573,VALID,46,VALID,0,
2009-03-31, 01:00:00,VALID,916.44,VALID,0,VALID,100,VALID,-0.0169808,VALID,19.563,VALID,46,VALID,0,
2009-03-31, 01:01:00,VALID,916.448,VALID,0,VALID,100,VALID,0,VALID,19.5633,VALID,46,VALID,0,
2009-03-31, 01:02:00,VALID,916.445,VALID,0,VALID,100,VALID,0.0169808,VALID,19.5506,VALID,46,VALID,0,
2009-03-31, 01:03:00,VALID,916.444,VALID,0,VALID,100,VALID,-0.0339617,VALID,19.5403,VALID,34,VALID,0,
2009-03-31, 01:04:00,VALID,916.445,VALID,0,VALID,100,VALID,0,VALID,19.5403,VALID,32,VALID,0,
2009-03-31, 01:05:00,VALID,916.422,VALID,0,VALID,100,VALID,0,VALID,19.5565,VALID,29,VALID,0,
2009-03-31, 01:06:00,VALID,916.424,VALID,0,VALID,100,VALID,0.0169808,VALID,19.5663,VALID,18,VALID,0,
2009-03-31, 01:07:00,VALID,916.423,VALID,0,VALID,100,VALID,0,VALID,19.5728,VALID,16,VALID,0,
2009-03-31, 01:08:00,VALID,916.404,VALID,0,VALID,100,VALID,-0.0169808,VALID,19.5887,VALID,16,VALID,0,
2009-03-31, 01:09:00,VALID,916.384,VALID,0,VALID,100,VALID,0,VALID,19.5922,VALID,16,VALID,0,
2009-03-31, 01:10:00,VALID,916.369,VALID,0,VALID,100,VALID,0.0169808,VALID,19.5823,VALID,16,VALID,0,
2009-03-31, 01:11:00,VALID,916.351,VALID,0,VALID,100,VALID,0,VALID,19.5798,VALID,16,VALID,0,
2009-03-31, 01:12:00,VALID,916.321,VALID,0,VALID,100,VALID,0,VALID,19.5955,VALID,16,VALID,0,
2009-03-31, 01:13:00,VALID,916.285,VALID,0,VALID,100,VALID,0,VALID,19.6247,VALID,16,VALID,0,
2009-03-31, 01:14:00,VALID,916.279,VALID,0,VALID,100,VALID,-0.0339617,VALID,19.6279,VALID,16,VALID,0,
2009-03-31, 01:15:00,VALID,916.258,VALID,0,VALID,100,VALID,0,VALID,19.6541,VALID,269,VALID,0,
2009-03-31, 01:16:00,VALID,916.248,VALID,0,VALID,100,VALID,0,VALID,19.6671,VALID,239,VALID,0,
2009-03-31, 01:17:00,VALID,916.238,VALID,0,VALID,100,VALID,-0.0169808,VALID,19.6669,VALID,229,VALID,0,
2009-03-31, 01:18:00,VALID,916.254,VALID,0,VALID,100,VALID,-0.0169808,VALID,19.6906,VALID,231,VALID,0,
2009-03-31, 01:19:00,VALID,916.259,VALID,0,VALID,100,VALID,0,VALID,19.6738,VALID,245,VALID,0,
2009-03-31, 01:20:00,VALID,916.281,VALID,0,VALID,100,VALID,0,VALID,19.6768,VALID,244,VALID,0,
2009-03-31, 01:21:00,VALID,916.297,VALID,0,VALID,100,VALID,-0.0169808,VALID,19.6671,VALID,255,VALID,0,
2009-03-31, 01:22:00,VALID,916.302,VALID,0,VALID,100,VALID,-0.0339617,VALID,19.6639,VALID,260,VALID,0,
2009-03-31, 01:23:00,VALID,916.32,VALID,0,VALID,100,VALID,-0.0849042,VALID,19.6676,VALID,264,VALID,0,
2009-03-31, 01:24:00,VALID,916.325,VALID,0,VALID,100,VALID,-0.101885,VALID,19.6816,VALID,264,VALID,0,
2009-03-31, 01:25:00,VALID,916.305,VALID,0,VALID,100,VALID,-0.118866,VALID,19.6943,VALID,264,VALID,0,
2009-03-31, 01:26:00,VALID,916.3,VALID,0,VALID,100,VALID,-0.101885,VALID,19.704,VALID,264,VALID,0,
2009-03-31, 01:27:00,VALID,916.271,VALID,0,VALID,100,VALID,-0.0849042,VALID,19.714,VALID,264,VALID,0,
2009-03-31, 01:28:00,VALID,916.267,VALID,0,VALID,100,VALID,-0.101885,VALID,19.7178,VALID,261,VALID,0,
2009-03-31, 01:29:00,VALID,916.269,VALID,0,VALID,100,VALID,-0.101885,VALID,19.7073,VALID,254,VALID,0,
2009-03-31, 01:30:00,VALID,916.254,VALID,0,VALID,100,VALID,-0.0849042,VALID,19.7075,VALID,254,VALID,0,
2009-03-31, 01:31:00,VALID,916.252,VALID,0,VALID,100,VALID,-0.0849042,VALID,19.6976,VALID,359,VALID,0,
2009-03-31, 01:32:00,VALID,916.258,VALID,0,VALID,100,VALID,-0.0849042,VALID,19.6748,VALID,53,VALID,0,
2009-03-31, 01:33:00,VALID,916.246,VALID,0,VALID,100,VALID,-0.101885,VALID,19.6781,VALID,316,VALID,0,
2009-03-31, 01:34:00,VALID,916.244,VALID,0,VALID,100,VALID,-0.0849042,VALID,19.6878,VALID,270,VALID,0,
2009-03-31, 01:35:00,VALID,916.225,VALID,0,VALID,100,VALID,-0.0679233,VALID,19.6908,VALID,259,VALID,0,
2009-03-31, 01:36:00,VALID,916.213,VALID,0,VALID,100,VALID,-0.118866,VALID,19.6943,VALID,259,VALID,0,
2009-03-31, 01:37:00,VALID,916.214,VALID,0,VALID,100,VALID,-0.0849042,VALID,19.7008,VALID,259,VALID,0,
2009-03-31, 01:38:00,VALID,916.199,VALID,0,VALID,100,VALID,-0.0679233,VALID,19.71,VALID,259,VALID,0,
2009-03-31, 01:39:00,VALID,916.2,VALID,0,VALID,100,VALID,0,VALID,19.7223,VALID,313,VALID,0,
2009-03-31, 01:40:00,VALID,916.206,VALID,0,VALID,100,VALID,-0.0339617,VALID,19.7288,VALID,347,VALID,0,
2009-03-31, 01:41:00,VALID,916.205,VALID,0,VALID,100,VALID,-0.0169808,VALID,19.7283,VALID,356,VALID,0,
2009-03-31, 01:42:00,VALID,916.208,VALID,0,VALID,100,VALID,0,VALID,19.7228,VALID,3,VALID,0,
2009-03-31, 01:43:00,VALID,916.212,VALID,0,VALID,100,VALID,0,VALID,19.6733,VALID,9,VALID,0,
2009-03-31, 01:44:00,VALID,916.213,VALID,0,VALID,100,VALID,0,VALID,19.6574,VALID,9,VALID,0,
2009-03-31, 01:45:00,VALID,916.212,VALID,0,VALID,100,VALID,0.0339617,VALID,19.6412,VALID,9,VALID,0,
2009-03-31, 01:46:00,VALID,916.208,VALID,0,VALID,100,VALID,0.0169808,VALID,19.6244,VALID,9,VALID,0,
2009-03-31, 01:47:00,VALID,916.192,VALID,0,VALID,100,VALID,-0.0169808,VALID,19.6279,VALID,9,VALID,0,
2009-03-31, 01:48:00,VALID,916.168,VALID,0,VALID,100,VALID,0,VALID,19.6082,VALID,9,VALID,0,
2009-03-31, 01:49:00,VALID,916.155,VALID,0,VALID,100,VALID,0.0509425,VALID,19.6117,VALID,9,VALID,0,
2009-03-31, 01:50:00,VALID,916.133,VALID,0,VALID,100,VALID,0.0339617,VALID,19.6085,VALID,9,VALID,0,
2009-03-31, 01:51:00,VALID,916.117,VALID,0,VALID,100,VALID,0.0169808,VALID,19.5987,VALID,9,VALID,0,
2009-03-31, 01:52:00,VALID,916.091,VALID,0,VALID,100,VALID,0,VALID,19.5825,VALID,9,VALID,0,
2009-03-31, 01:53:00,VALID,916.073,VALID,0,VALID,100,VALID,-0.0509425,VALID,19.5573,VALID,9,VALID,0,
2009-03-31, 01:54:00,VALID,916.07,VALID,0,VALID,100,VALID,-0.118866,VALID,19.5418,VALID,9,VALID,0,
2009-03-31, 01:55:00,VALID,916.065,VALID,0,VALID,100,VALID,-0.0849042,VALID,19.5256,VALID,9,VALID,0,
2009-03-31, 01:56:00,VALID,916.066,VALID,0,VALID,100,VALID,-0.101885,VALID,19.5094,VALID,9,VALID,0,
2009-03-31, 01:57:00,VALID,916.071,VALID,0,VALID,100,VALID,-0.118866,VALID,19.5029,VALID,9,VALID,0,
2009-03-31, 01:58:00,VALID,916.078,VALID,0,VALID,100,VALID,-0.101885,VALID,19.5223,VALID,9,VALID,0,
2009-03-31, 01:59:00,VALID,916.076,VALID,0,VALID,100,VALID,-0.0849042,VALID,19.5256,VALID,8,VALID,0,
2009-03-31, 02:00:00,VALID,916.088,VALID,0,VALID,100,VALID,-0.101885,VALID,19.5455,VALID,8,VALID,0,
2009-03-31, 02:01:00,VALID,916.09,VALID,0,VALID,100,VALID,-0.101885,VALID,19.5451,VALID,8,VALID,0,
2009-03-31, 02:02:00,VALID,916.076,VALID,0,VALID,100,VALID,-0.101885,VALID,19.5483,VALID,8,VALID,0,
2009-03-31, 02:03:00,VALID,916.053,VALID,0,VALID,100,VALID,-0.118866,VALID,19.5678,VALID,9,VALID,0,
2009-03-31, 02:04:00,VALID,916.038,VALID,0,VALID,100,VALID,-0.101885,VALID,19.5448,VALID,145,VALID,0,
2009-03-31, 02:05:00,VALID,916.025,VALID,0,VALID,100,VALID,-0.0679233,VALID,19.5283,VALID,154,VALID,0,
2009-03-31, 02:06:00,VALID,916,VALID,0,VALID,100,VALID,-0.0849042,VALID,19.5218,VALID,160,VALID,0,
2009-03-31, 02:07:00,VALID,915.983,VALID,0,VALID,100,VALID,-0.0849042,VALID,19.5184,VALID,162,VALID,0,
2009-03-31, 02:08:00,VALID,915.974,VALID,0,VALID,100,VALID,-0.0849042,VALID,19.5283,VALID,161,VALID,0,
2009-03-31, 02:09:00,VALID,915.952,VALID,0,VALID,100,VALID,-0.0849042,VALID,19.548,VALID,161,VALID,0,
2009-03-31, 02:10:00,VALID,915.942,VALID,0,VALID,100,VALID,-0.0679233,VALID,19.5381,VALID,161,VALID,0,
2009-03-31, 02:11:00,VALID,915.926,VALID,0,VALID,100,VALID,-0.0679233,VALID,19.5478,VALID,160,VALID,0,
2009-03-31, 02:12:00,VALID,915.893,VALID,0,VALID,100,VALID,-0.0849042,VALID,19.558,VALID,160,VALID,0,
2009-03-31, 02:13:00,VALID,915.881,VALID,0,VALID,100,VALID,-0.101885,VALID,19.5483,VALID,154,VALID,0,
2009-03-31, 02:14:00,VALID,915.863,VALID,0,VALID,100,VALID,-0.0679233,VALID,19.551,VALID,150,VALID,0,
2009-03-31, 02:15:00,VALID,915.871,VALID,0,VALID,100,VALID,-0.101885,VALID,19.5578,VALID,146,VALID,0,
2009-03-31, 02:16:00,VALID,915.864,VALID,0,VALID,100,VALID,-0.101885,VALID,19.5645,VALID,146,VALID,0,
2009-03-31, 02:17:00,VALID,915.87,VALID,0,VALID,100,VALID,-0.0849042,VALID,19.5802,VALID,146,VALID,0,
2009-03-31, 02:18:00,VALID,915.861,VALID,0,VALID,100,VALID,-0.101885,VALID,19.5935,VALID,146,VALID,0,
2009-03-31, 02:19:00,VALID,915.86,VALID,0,VALID,100,VALID,-0.101885,VALID,19.5967,VALID,146,VALID,0,
2009-03-31, 02:20:00,VALID,915.852,VALID,0,VALID,100,VALID,-0.0679233,VALID,19.5997,VALID,146,VALID,0,
2009-03-31, 02:21:00,VALID,915.843,VALID,0,VALID,100,VALID,-0.101885,VALID,19.6197,VALID,146,VALID,0,
2009-03-31, 02:22:00,VALID,915.82,VALID,0,VALID,100,VALID,-0.0849042,VALID,19.6359,VALID,146,VALID,0,
2009-03-31, 02:23:00,VALID,915.81,VALID,0,VALID,100,VALID,-0.0849042,VALID,19.6319,VALID,146,VALID,0,
2009-03-31, 02:24:00,VALID,915.803,VALID,0,VALID,100,VALID,0.0169808,VALID,19.6277,VALID,146,VALID,0,
2009-03-31, 02:25:00,VALID,915.777,VALID,0,VALID,100,VALID,0,VALID,19.6312,VALID,148,VALID,0,
2009-03-31, 02:26:00,VALID,915.756,VALID,0,VALID,100,VALID,0,VALID,19.6247,VALID,156,VALID,0,
2009-03-31, 02:27:00,VALID,915.743,VALID,0,VALID,100,VALID,-0.0169808,VALID,19.6149,VALID,164,VALID,0,
2009-03-31, 02:28:00,VALID,915.726,VALID,0,VALID,100,VALID,-0.0169808,VALID,19.6085,VALID,164,VALID,0,
2009-03-31, 02:29:00,VALID,915.725,VALID,0,VALID,100,VALID,0,VALID,19.5825,VALID,153,VALID,0,
2009-03-31, 02:30:00,VALID,915.714,VALID,0,VALID,100,VALID,0,VALID,19.5663,VALID,150,VALID,0,
2009-03-31, 02:31:00,VALID,915.714,VALID,0,VALID,100,VALID,0.0169808,VALID,19.5598,VALID,148,VALID,0,
2009-03-31, 02:32:00,VALID,915.708,VALID,0,VALID,100,VALID,0.0169808,VALID,19.5466,VALID,134,VALID,0,
2009-03-31, 02:33:00,VALID,915.695,VALID,0,VALID,100,VALID,0,VALID,19.5471,VALID,131,VALID,0,
2009-03-31, 02:34:00,VALID,915.693,VALID,0,VALID,100,VALID,0,VALID,19.5563,VALID,121,VALID,0,
2009-03-31, 02:35:00,VALID,915.666,VALID,0,VALID,100,VALID,0,VALID,19.5468,VALID,111,VALID,0,
2009-03-31, 02:36:00,VALID,915.663,VALID,0,VALID,100,VALID,0,VALID,19.5468,VALID,108,VALID,0,
2009-03-31, 02:37:00,VALID,915.657,VALID,0,VALID,100,VALID,0,VALID,19.5501,VALID,107,VALID,0,
2009-03-31, 02:38:00,VALID,915.657,VALID,0,VALID,100,VALID,0,VALID,19.5531,VALID,107,VALID,0,
2009-03-31, 02:39:00,VALID,915.66,VALID,0,VALID,100,VALID,-0.0169808,VALID,19.5531,VALID,107,VALID,0,
2009-03-31, 02:40:00,VALID,915.665,VALID,0,VALID,100,VALID,0.0169808,VALID,19.5558,VALID,107,VALID,0,
2009-03-31, 02:41:00,VALID,915.666,VALID,0,VALID,100,VALID,0,VALID,19.572,VALID,107,VALID,0,
2009-03-31, 02:42:00,VALID,915.667,VALID,0,VALID,100,VALID,-0.0169808,VALID,19.596,VALID,107,VALID,0,
2009-03-31, 02:43:00,VALID,915.679,VALID,0,VALID,100,VALID,0,VALID,19.6052,VALID,107,VALID,0,
2009-03-31, 02:44:00,VALID,915.677,VALID,0,VALID,100,VALID,0.0169808,VALID,19.6247,VALID,107,VALID,0,
2009-03-31, 02:45:00,VALID,915.659,VALID,0,VALID,100,VALID,0,VALID,19.6439,VALID,107,VALID,0,
2009-03-31, 02:46:00,VALID,915.656,VALID,0,VALID,100,VALID,0,VALID,19.6604,VALID,107,VALID,0,
2009-03-31, 02:47:00,VALID,915.654,VALID,0,VALID,100,VALID,0.0169808,VALID,19.6861,VALID,107,VALID,0,
2009-03-31, 02:48:00,VALID,915.64,VALID,0,VALID,100,VALID,0,VALID,19.6898,VALID,107,VALID,0,
2009-03-31, 02:49:00,VALID,915.64,VALID,0,VALID,100,VALID,0,VALID,19.6831,VALID,107,VALID,0,
2009-03-31, 02:50:00,VALID,915.64,VALID,0,VALID,100,VALID,-0.0169808,VALID,19.6833,VALID,107,VALID,0,
2009-03-31, 02:51:00,VALID,915.64,VALID,0,VALID,100,VALID,0.0169808,VALID,19.6766,VALID,107,VALID,0,
2009-03-31, 02:52:00,VALID,915.63,VALID,0,VALID,100,VALID,0,VALID,19.6701,VALID,107,VALID,0,
2009-03-31, 02:53:00,VALID,915.63,VALID,0,VALID,100,VALID,0.0169808,VALID,19.6766,VALID,107,VALID,0,
2009-03-31, 02:54:00,VALID,915.632,VALID,0,VALID,100,VALID,0,VALID,19.6926,VALID,107,VALID,0,
2009-03-31, 02:55:00,VALID,915.621,VALID,0,VALID,100,VALID,-0.0169808,VALID,19.719,VALID,107,VALID,0,
2009-03-31, 02:56:00,VALID,915.609,VALID,0,VALID,100,VALID,0,VALID,19.715,VALID,107,VALID,0,
2009-03-31, 02:57:00,VALID,915.595,VALID,0,VALID,100,VALID,0,VALID,19.7088,VALID,107,VALID,0,
2009-03-31, 02:58:00,VALID,915.596,VALID,0,VALID,100,VALID,-0.0169808,VALID,19.6893,VALID,107,VALID,0,
2009-03-31, 02:59:00,VALID,915.579,VALID,0,VALID,100,VALID,0,VALID,19.6798,VALID,107,VALID,0,
2009-03-31, 03:00:00,VALID,915.572,VALID,0,VALID,100,VALID,0.0169808,VALID,19.6733,VALID,107,VALID,0,
2009-03-31, 03:01:00,VALID,915.555,VALID,0,VALID,100,VALID,0,VALID,19.6701,VALID,107,VALID,0,
2009-03-31, 03:02:00,VALID,915.536,VALID,0,VALID,100,VALID,0,VALID,19.6636,VALID,107,VALID,0,
2009-03-31, 03:03:00,VALID,915.529,VALID,0,VALID,100,VALID,0,VALID,19.6669,VALID,107,VALID,0,
2009-03-31, 03:04:00,VALID,915.497,VALID,0,VALID,100,VALID,0,VALID,19.6766,VALID,107,VALID,0,
2009-03-31, 03:05:00,VALID,915.479,VALID,0,VALID,100,VALID,0,VALID,19.6636,VALID,107,VALID,0,
2009-03-31, 03:06:00,VALID,915.461,VALID,0,VALID,100,VALID,0,VALID,19.6636,VALID,107,VALID,0,
2009-03-31, 03:07:00,VALID,915.421,VALID,0,VALID,100,VALID,0.0169808,VALID,19.6601,VALID,107,VALID,0,
2009-03-31, 03:08:00,VALID,915.389,VALID,0,VALID,100,VALID,-0.0339617,VALID,19.6644,VALID,107,VALID,0,
2009-03-31, 03:09:00,VALID,915.36,VALID,0,VALID,100,VALID,-0.101885,VALID,19.6456,VALID,123,VALID,0.0130208,
2009-03-31, 03:10:00,VALID,915.345,VALID,0,VALID,100,VALID,-0.101885,VALID,19.6229,VALID,132,VALID,0,
2009-03-31, 03:11:00,VALID,915.317,VALID,0,VALID,100,VALID,-0.118866,VALID,19.6459,VALID,138,VALID,0,
2009-03-31, 03:12:00,VALID,915.31,VALID,0,VALID,100,VALID,-0.118866,VALID,19.6489,VALID,139,VALID,0,
2009-03-31, 03:13:00,VALID,915.298,VALID,0,VALID,100,VALID,-0.118866,VALID,19.6554,VALID,146,VALID,0,
2009-03-31, 03:14:00,VALID,915.316,VALID,0,VALID,100,VALID,-0.101885,VALID,19.6619,VALID,152,VALID,0,
2009-03-31, 03:15:00,VALID,915.307,VALID,0,VALID,100,VALID,-0.118866,VALID,19.6554,VALID,153,VALID,0,
2009-03-31, 03:16:00,VALID,915.313,VALID,0,VALID,100,VALID,-0.101885,VALID,19.6489,VALID,163,VALID,0,
2009-03-31, 03:17:00,VALID,915.324,VALID,0,VALID,100,VALID,-0.118866,VALID,19.6489,VALID,151,VALID,0.0445312,
2009-03-31, 03:18:00,VALID,915.31,VALID,0,VALID,100,VALID,-0.101885,VALID,19.6424,VALID,169,VALID,0.0464844,
2009-03-31, 03:19:00,VALID,915.309,VALID,0,VALID,100,VALID,-0.135847,VALID,19.6334,VALID,147,VALID,0.00520833,
2009-03-31, 03:20:00,VALID,915.307,VALID,0,VALID,100,VALID,-0.135847,VALID,19.6299,VALID,142,VALID,0.000744048,
2009-03-31, 03:21:00,VALID,915.296,VALID,0,VALID,100,VALID,-0.135847,VALID,19.6332,VALID,138,VALID,0.00613839,
2009-03-31, 03:22:00,VALID,915.302,VALID,0,VALID,100,VALID,-0.152827,VALID,19.6234,VALID,134,VALID,0.00186012,
2009-03-31, 03:23:00,VALID,915.292,VALID,0,VALID,100,VALID,-0.0679233,VALID,19.6259,VALID,145,VALID,0.0621449,
2009-03-31, 03:24:00,VALID,915.308,VALID,0,VALID,100,VALID,-0.0169808,VALID,19.6152,VALID,160,VALID,0.0743096,
2009-03-31, 03:25:00,VALID,915.302,VALID,0,VALID,100,VALID,-0.0509425,VALID,19.6152,VALID,154,VALID,0.00514482,
2009-03-31, 03:26:00,VALID,915.305,VALID,0,VALID,100,VALID,-0.0169808,VALID,19.6252,VALID,146,VALID,0,
2009-03-31, 03:27:00,VALID,915.335,VALID,0,VALID,100,VALID,0,VALID,19.6214,VALID,158,VALID,0,
2009-03-31, 03:28:00,VALID,915.362,VALID,0,VALID,100,VALID,-0.0509425,VALID,19.6212,VALID,133,VALID,0,
2009-03-31, 03:29:00,VALID,915.383,VALID,0,VALID,100,VALID,-0.0339617,VALID,19.6284,VALID,174,VALID,0,
2009-03-31, 03:30:00,VALID,915.407,VALID,0,VALID,100,VALID,-0.0509425,VALID,19.6414,VALID,176,VALID,0,
2009-03-31, 03:31:00,VALID,915.421,VALID,0,VALID,100,VALID,-0.0509425,VALID,19.6509,VALID,176,VALID,0,
2009-03-31, 03:32:00,VALID,915.416,VALID,0,VALID,100,VALID,-0.0169808,VALID,19.6546,VALID,163,VALID,0,
2009-03-31, 03:33:00,VALID,915.42,VALID,0,VALID,100,VALID,-0.0509425,VALID,19.6506,VALID,161,VALID,0,
2009-03-31, 03:34:00,VALID,915.409,VALID,0,VALID,100,VALID,-0.0339617,VALID,19.6571,VALID,159,VALID,0,
2009-03-31, 03:35:00,VALID,915.376,VALID,0,VALID,100,VALID,-0.0169808,VALID,19.6576,VALID,159,VALID,0,
2009-03-31, 03:36:00,VALID,915.356,VALID,0,VALID,100,VALID,-0.0509425,VALID,19.6636,VALID,159,VALID,0,
2009-03-31, 03:37:00,VALID,915.343,VALID,0,VALID,100,VALID,-0.0509425,VALID,19.6576,VALID,155,VALID,0,
2009-03-31, 03:38:00,VALID,915.31,VALID,0,VALID,100,VALID,-0.0339617,VALID,19.6344,VALID,152,VALID,0,
2009-03-31, 03:39:00,VALID,915.317,VALID,0,VALID,100,VALID,-0.0169808,VALID,19.6312,VALID,152,VALID,0,
2009-03-31, 03:40:00,VALID,915.292,VALID,0,VALID,100,VALID,-0.0509425,VALID,19.6377,VALID,152,VALID,0,
2009-03-31, 03:41:00,VALID,915.276,VALID,0,VALID,100,VALID,-0.0339617,VALID,19.6344,VALID,152,VALID,0,
2009-03-31, 03:42:00,VALID,915.265,VALID,0,VALID,100,VALID,-0.0339617,VALID,19.6481,VALID,152,VALID,0,
2009-03-31, 03:43:00,VALID,915.233,VALID,0,VALID,100,VALID,-0.0679233,VALID,19.6414,VALID,152,VALID,0,
2009-03-31, 03:44:00,VALID,915.225,VALID,0,VALID,100,VALID,-0.0849042,VALID,19.6476,VALID,153,VALID,0,
2009-03-31, 03:45:00,VALID,915.219,VALID,0,VALID,100,VALID,-0.0339617,VALID,19.6479,VALID,153,VALID,0,
2009-03-31, 03:46:00,VALID,915.21,VALID,0,VALID,100,VALID,-0.0509425,VALID,19.6511,VALID,142,VALID,0,
2009-03-31, 03:47:00,VALID,915.213,VALID,0,VALID,100,VALID,-0.0339617,VALID,19.6344,VALID,141,VALID,0,
2009-03-31, 03:48:00,VALID,915.215,VALID,0,VALID,100,VALID,-0.0169808,VALID,19.6344,VALID,140,VALID,0,
2009-03-31, 03:49:00,VALID,915.239,VALID,0,VALID,100,VALID,-0.0679233,VALID,19.6349,VALID,140,VALID,0,
2009-03-31, 03:50:00,VALID,915.246,VALID,0,VALID,100,VALID,-0.0509425,VALID,19.6249,VALID,140,VALID,0,
2009-03-31, 03:51:00,VALID,915.261,VALID,0,VALID,100,VALID,-0.0509425,VALID,19.6249,VALID,140,VALID,0,
2009-03-31, 03:52:00,VALID,915.254,VALID,0,VALID,100,VALID,-0.0339617,VALID,19.6184,VALID,140,VALID,0,
2009-03-31, 03:53:00,VALID,915.235,VALID,0,VALID,100,VALID,-0.0339617,VALID,19.6384,VALID,140,VALID,0,